Ames, IA

7:34 PM CDT on June 28, 2017 (GMT -0500)
Ames Municipal

Weather History for KAMW - July, 2013

Change the Weather History Date:

Monday, July 29, 2013

  Actual Average Record
Temperature  
Mean Temperature 61 °F 73 °F  
Max Temperature 75 °F 83 °F 95 °F (1999)
Min Temperature 47 °F 63 °F 47 °F (2013)
Degree Days  
Heating Degree Days 4 0  
Month to date heating degree days 9 0  
Since 1 June heating degree days 51 24  
Since 1 July heating degree days 9 0  
Cooling Degree Days 0 8  
Month to date cooling degree days 251 249  
Year to date cooling degree days 493 472  
Since 1 June cooling degree days 438 423  
Growing Degree Days 10 (Base 50)    
Moisture  
Dew Point 51 °F    
Average Humidity 75    
Maximum Humidity 100    
Minimum Humidity 49    
Precipitation  
Precipitation 0.00 in 0.14 in 1.83 in (1983)
Month to date precipitation 1.24 4.42  
Sea Level Pressure  
Sea Level Pressure 30.10 in    
Wind  
Wind Speed 5 mph (SE)    
Max Wind Speed 13 mph    
Max Gust Speed 17 mph    
Visibility 7 miles    
Events Fog    
T = Trace of Precipitation, MM = Missing Value Source: NWS Daily Summary

Daily Weather History Graph

Daily Weather History Graph

Search for Another Location

Airport or City:

Trip Planner

Search our weather history database for the weather conditions in past years. The results will help you decide how hot, cold, wet, or windy it might be!

Date:

Astronomy

Jul. 29, 2013 Rise Set
Actual Time 6:05 AM CDT 8:36 PM CDT
Civil Twilight 5:33 AM CDT 9:07 PM CDT
Nautical Twilight 4:53 AM CDT 9:47 PM CDT
Astronomical Twilight 4:09 AM CDT 10:31 PM CDT
Moon No Moon Rise 1:56 PM CDT
Length of Visible Light 15h 34m
Length of Day
14h 30m
Waning Gibbous, 50% of the Moon is Illuminated
Jul 29
Waning Gibbous
Jul 29
Last Quarter
Aug 6
New
Aug 14
First Quarter
Aug 20
Full

Hourly Weather History & Observations

Time (CDT) Temp. Dew Point Humidity Pressure Visibility Wind Dir Wind Speed Gust Speed Precip Events Conditions
12:53 AM 53.1 °F 48.9 °F 86% 30.07 in 10.0 mi Calm Calm - N/A   Clear
1:53 AM 51.1 °F 48.0 °F 89% 30.07 in 10.0 mi Calm Calm - N/A   Clear
2:53 AM 50.0 °F 48.0 °F 93% 30.08 in 10.0 mi Calm Calm - N/A   Clear
3:53 AM 48.9 °F 46.9 °F 93% 30.09 in 10.0 mi Calm Calm - N/A   Clear
4:43 AM 48.2 °F 46.4 °F 93% 30.10 in 1.8 mi Calm Calm - N/A   Clear
4:53 AM 48.9 °F 46.9 °F 93% 30.08 in 0.5 mi Calm Calm - N/A Fog Fog
5:06 AM 48.2 °F 46.4 °F 93% 30.10 in 2.0 mi Calm Calm - N/A   Clear
5:13 AM 48.2 °F 46.4 °F 93% 30.10 in 8.0 mi Calm Calm - N/A   Clear
5:51 AM 48.2 °F 46.4 °F 93% 30.11 in 1.5 mi Calm Calm - N/A   Clear
5:53 AM 46.9 °F 46.0 °F 97% 30.10 in 1.2 mi Calm Calm - N/A   Clear
6:08 AM 48.2 °F 46.4 °F 93% 30.11 in 3.0 mi Calm Calm - N/A   Clear
6:16 AM 46.4 °F 46.4 °F 100% 30.12 in 1.5 mi Calm Calm - N/A   Clear
6:37 AM 46.4 °F 46.4 °F 100% 30.12 in 0.2 mi Calm Calm - N/A Fog Fog
6:51 AM 48.2 °F 46.4 °F 93% 30.13 in 1.0 mi Calm Calm - N/A   Clear
6:53 AM 48.9 °F 48.0 °F 97% 30.12 in 2.0 mi Calm Calm - N/A   Clear
7:00 AM 50.0 °F 48.2 °F 94% 30.13 in 9.0 mi Calm Calm - N/A   Clear
7:53 AM 55.9 °F 52.0 °F 87% 30.12 in 10.0 mi Calm Calm - N/A   Clear
8:53 AM 63.0 °F 53.1 °F 70% 30.12 in 10.0 mi SE 6.9 mph - N/A   Clear
9:53 AM 69.1 °F 53.1 °F 57% 30.11 in 10.0 mi South 8.1 mph - N/A   Clear
10:53 AM 71.1 °F 53.1 °F 53% 30.11 in 10.0 mi SE 6.9 mph - N/A   Clear
11:53 AM 72.0 °F 53.1 °F 51% 30.12 in 10.0 mi SSE 9.2 mph - N/A   Clear
12:53 PM 72.0 °F 54.0 °F 53% 30.10 in 10.0 mi SSE 10.4 mph - N/A   Clear
1:53 PM 71.1 °F 53.1 °F 53% 30.10 in 10.0 mi SSE 8.1 mph - N/A   Overcast
2:53 PM 73.9 °F 55.0 °F 52% 30.10 in 10.0 mi SE 9.2 mph - N/A   Overcast
3:53 PM 73.0 °F 54.0 °F 51% 30.09 in 10.0 mi SE 10.4 mph - N/A   Mostly Cloudy
4:53 PM 72.0 °F 55.0 °F 55% 30.09 in 10.0 mi SSE 6.9 mph - N/A   Mostly Cloudy
5:53 PM 71.1 °F 57.0 °F 61% 30.08 in 10.0 mi SSE 8.1 mph - N/A   Scattered Clouds
6:53 PM 70.0 °F 57.9 °F 65% 30.07 in 10.0 mi SE 6.9 mph - N/A   Overcast
7:53 PM 70.0 °F 57.0 °F 63% 30.06 in 10.0 mi ESE 5.8 mph - N/A   Overcast
8:53 PM 68.0 °F 57.9 °F 70% 30.07 in 10.0 mi ESE 4.6 mph - N/A   Mostly Cloudy
9:53 PM 66.0 °F 57.9 °F 75% 30.09 in 10.0 mi SE 3.5 mph - N/A   Overcast
10:53 PM 66.0 °F 59.0 °F 78% 30.09 in 10.0 mi SSE 4.6 mph - N/A   Overcast
11:53 PM 66.0 °F 59.0 °F 78% 30.07 in 10.0 mi SE 4.6 mph - N/A   Overcast